This is the latest recevied weather packets stored in our database for station/object N1KM-15. If no packets are shown the sender has not sent any weather packets the latest 1 day(s).
| Time | Temp. | Humidity | Pressure | Rain* | Wind** | Luminosity | Snow |
|---|---|---|---|---|---|---|---|
| 1778026500 | 12.22° C | 83% | 1009.8 hPa | 0 mm | 2.24 m/s, 178° | - | - |
| 1778025600 | 12.78° C | 82% | 1009.3 hPa | 0 mm | 3.13 m/s, 200° | - | - |
| 1778024700 | 12.78° C | 81% | 1008.8 hPa | 0 mm | 2.24 m/s, 190° | - | - |
| 1778023800 | 12.78° C | 81% | 1008.8 hPa | 0 mm | 2.24 m/s, 190° | - | - |
| 1778022900 | 13.33° C | 81% | 1008.9 hPa | 0 mm | 0.45 m/s, 111° | - | - |
| 1778022000 | 13.33° C | 80% | 1008.9 hPa | 0 mm | 1.79 m/s, 179° | - | - |
| 1778021100 | 13.33° C | 80% | 1008.8 hPa | 0 mm | 0.89 m/s, 53° | - | - |
| 1778020200 | 13.33° C | 80% | 1008.6 hPa | 0 mm | 1.79 m/s, 164° | - | - |
| 1778019300 | 13.33° C | 80% | 1008.6 hPa | 0 mm | 1.79 m/s, 145° | - | - |
| 1778018400 | 13.33° C | 80% | 1008.6 hPa | 0 mm | 1.34 m/s, 146° | - | - |
| 1778017500 | 13.33° C | 79% | 1008.4 hPa | 0 mm | 0.89 m/s, 174° | - | - |
| 1778016600 | 13.33° C | 80% | 1008.7 hPa | 0 mm | 0.45 m/s, 201° | - | - |
| 1778015700 | 13.33° C | 80% | 1008.3 hPa | 0 mm | 1.34 m/s, 186° | - | - |
| 1778014800 | 13.89° C | 79% | 1007.9 hPa | 0 mm | 1.34 m/s, 149° | - | - |
| 1778013900 | 13.89° C | 79% | 1008.2 hPa | 0 mm | 0.45 m/s, 222° | - | - |
| 1778013000 | 13.89° C | 79% | 1008.4 hPa | 0 mm | 1.34 m/s, 166° | - | - |
| 1778012100 | 13.89° C | 78% | 1008.4 hPa | 0 mm | 3.13 m/s, 160° | - | - |
| 1778011200 | 13.89° C | 78% | 1008.2 hPa | 0 mm | 0.89 m/s, 133° | - | - |
| 1778010300 | 14.44° C | 77% | 1008 hPa | 0 mm | 2.24 m/s, 183° | - | - |
| 1778009400 | 14.44° C | 76% | 1008.3 hPa | 0 mm | 2.68 m/s, 140° | - | - |
| 1778008500 | 15° C | 75% | 1008.2 hPa | 0 mm | 1.34 m/s, 155° | - | - |
| 1778007600 | 15° C | 76% | 1008.3 hPa | 0 mm | 3.58 m/s, 166° | - | - |
| 1778006700 | 15° C | 76% | 1008.2 hPa | 0 mm | 2.68 m/s, 121° | - | - |
| 1778005800 | 15° C | 76% | 1008.5 hPa | 0 mm | 2.24 m/s, 159° | - | - |
| 1778004900 | 15.56° C | 75% | 1008.4 hPa | 0 mm | 1.34 m/s, 213° | - | - |
* Rain since midnight (hover to see other rain measurements)
** Current wind speed in m/s (hover to see current wind gust speed)